Location: Nairn
(57.5833°N, 3.8667°W)
Time: 04:30:51
(UTC+00:00)

Altair - Pass Details

Date: 29 November 2020
Orbit: 1501 x 1682 km, 47.2° (Epoch: 17 January)

Event Time Altitude Azimuth Distance (km) Brightness Sun altitude
Rises 20:13:23 0° 207° (SSW) 4,714 10.2 -35.3°
Reaches altitude 10° 20:17:06 10° 196° (SSW) 3,708 9.5 -35.8°
Enters shadow 20:18:51 15° 188° (S) 3,300 9.1 -36.0°
